Location: Newark
(12.5331°N, 56.4669°W)
Time: 11:35:58
(UTC+00:00)

Envisat - Pass Details

Date: 28 January 2020
Orbit: 764 x 766 km, 98.1° (Epoch: 23 February)

Event Time Altitude Azimuth Distance (km) Brightness Sun altitude
Rises 22:07:20 0° 175° (S) 3,219 6.4 -5.9°
Reaches altitude 10° 22:09:39 10° 178° (S) 2,293 5.7 -6.4°
Maximum altitude 22:14:38 62° 258° (WSW) 855 3.6 -7.6°
Drops below altitude 10° 22:19:38 10° 339° (NNW) 2,294 5.5 -8.7°
Sets 22:21:58 0° 343° (NNW) 3,220 6.2 -9.3°
